Lone Rock, WI

2:09 PM CDT on May 22, 2017 (GMT -0500)
Tri-County Regional

Weather History for KLNR - April, 2012

Change the Weather History Date:

Sunday, April 22, 2012

  Actual Average Record
Temperature  
Mean Temperature 46 °F -  
Max Temperature 57 °F 58 °F 84 °F (2007)
Min Temperature 35 °F 36 °F 28 °F (2003)
Degree Days  
Heating Degree Days 19    
Moisture  
Dew Point 27 °F    
Average Humidity 49    
Maximum Humidity 78    
Minimum Humidity 26    
Precipitation  
Precipitation 0.00 in - - ()
Sea Level Pressure  
Sea Level Pressure 30.11 in    
Wind  
Wind Speed 6 mph (NE)    
Max Wind Speed 14 mph    
Max Gust Speed 21 mph    
Visibility 10 miles    
Events      
Averages and records for this station are not official NWS values.
T = Trace of Precipitation, MM = Missing Value Source: NWS Daily Summary

Daily Weather History Graph

Daily Weather History Graph

Search for Another Location

Airport or City:

Trip Planner

Search our weather history database for the weather conditions in past years. The results will help you decide how hot, cold, wet, or windy it might be!

Date:

Astronomy

Apr. 22, 2012 Rise Set
Actual Time 6:06 AM CDT 7:52 PM CDT
Civil Twilight 5:36 AM CDT 8:22 PM CDT
Nautical Twilight 4:59 AM CDT 8:59 PM CDT
Astronomical Twilight 4:19 AM CDT 9:39 PM CDT
Moon 6:35 AM CDT 9:32 PM CDT
Length of Visible Light 14h 46m
Length of Day
13h 45m
New Moon, 2% of the Moon is Illuminated
Apr 22
New Moon
Apr 29
First Quarter
May 5
Full
May 12
Last Quarter
May 20
New

Hourly Weather History & Observations

Time (CDT) Temp. Windchill Dew Point Humidity Pressure Visibility Wind Dir Wind Speed Gust Speed Precip Events Conditions
12:56 AM 44.1 °F 39.0 °F 27.0 °F 51% 30.01 in 10.0 mi East 9.2 mph - N/A   Overcast
1:56 AM 39.9 °F 35.8 °F 28.0 °F 63% 30.00 in 10.0 mi ENE 5.8 mph - N/A   Overcast
2:56 AM 42.1 °F 38.4 °F 26.1 °F 53% 30.01 in 10.0 mi ENE 5.8 mph - N/A   Overcast
3:56 AM 41.0 °F 38.0 °F 26.1 °F 55% 30.03 in 10.0 mi ENE 4.6 mph - N/A   Overcast
4:56 AM 39.0 °F - 26.1 °F 60% 30.04 in 10.0 mi Calm Calm - N/A   Overcast
5:56 AM 37.9 °F - 27.0 °F 65% 30.06 in 10.0 mi Calm Calm - N/A   Overcast
6:56 AM 35.1 °F - 28.9 °F 78% 30.08 in 10.0 mi Calm Calm - N/A   Partly Cloudy
7:56 AM 41.0 °F 35.8 °F 28.9 °F 62% 30.11 in 10.0 mi East 8.1 mph - N/A   Unknown
8:56 AM 45.0 °F 40.1 °F 30.0 °F 56% 30.13 in 10.0 mi East 9.2 mph - N/A   Clear
9:56 AM 46.9 °F - 28.0 °F 48% 30.14 in 10.0 mi East 9.2 mph - N/A   Clear
10:56 AM 51.1 °F - 26.1 °F 38% 30.14 in 10.0 mi East 11.5 mph 16.1 mph N/A   Clear
11:56 AM 52.0 °F - 24.1 °F 34% 30.15 in 10.0 mi East 11.5 mph - N/A   Clear
12:56 PM 52.0 °F - 26.1 °F 37% 30.15 in 10.0 mi Calm Calm - N/A   Mostly Cloudy
1:56 PM 55.0 °F - 23.0 °F 29% 30.14 in 10.0 mi NE 10.4 mph 17.3 mph N/A   Scattered Clouds
2:56 PM 54.0 °F - 24.1 °F 31% 30.14 in 10.0 mi North 13.8 mph 20.7 mph N/A   Partly Cloudy
3:56 PM 55.9 °F - 24.1 °F 29% 30.13 in 10.0 mi Variable 5.8 mph - N/A   Clear
4:56 PM 57.0 °F - 25.0 °F 29% 30.13 in 10.0 mi Variable 6.9 mph - N/A   Partly Cloudy
5:56 PM 55.9 °F - 21.0 °F 26% 30.13 in 10.0 mi North 5.8 mph - N/A   Clear
6:56 PM 55.0 °F - 21.0 °F 27% 30.13 in 10.0 mi North 8.1 mph - N/A   Clear
7:56 PM 48.9 °F - 27.0 °F 43% 30.14 in 10.0 mi North 3.5 mph - N/A   Clear
8:56 PM 46.0 °F - 28.9 °F 51% 30.15 in 10.0 mi Calm Calm - N/A   Clear
9:56 PM 42.1 °F 40.2 °F 30.9 °F 65% 30.15 in 10.0 mi WSW 3.5 mph - N/A   Clear
10:56 PM 37.9 °F - 30.0 °F 73% 30.15 in 10.0 mi Calm Calm - N/A   Clear
11:56 PM 37.0 °F - 30.0 °F 76% 30.15 in 10.0 mi Calm Calm - N/A   Partly Cloudy